Station GDMM5 - 9099090 - Grand Marais, MN Image indicating link to RSS feed of recent meteorological observations for station GDMM5


Conditions at GDMM5 as of
(2:00 pm CDT)
1900 GMT on 05/28/2024:
     

Click on the graph icon in the table below to see a time series plot of the last five days of that observation.

5-day plot - Atmospheric Pressure Atmospheric Pressure (PRES):30.00 in
5-day plot - Pressure Tendency Pressure Tendency (PTDY):+0.04 in ( Rising )
5-day plot - Air Temperature Air Temperature (ATMP): 54.0 °F
5-day plot - Water Temperature Water Temperature (WTMP): 45.1 °F
5-day plot - Dew Point Dew Point (DEWP): 47.5 °F
NOS Water Level Observation Network Water Level
Previous observations
TIME
(CDT)
5-day plot - Wind Direction
WDIR
 
5-day plot - Wind Speed
WSPD
kts
5-day plot - Wind Gust
GST
kts
5-day plot - Wave Height
WVHT
ft
5-day plot - Dominant Wave Period
DPD
sec
5-day plot - Average Wave Period
APD
sec
5-day plot - Mean Wave Direction
MWD
 
5-day plot - Atmospheric Pressure
PRES
in
5-day plot - Pressure Tendency
PTDY
in
5-day plot - Air Temperature
ATMP
°F
5-day plot - Water Temperature
WTMP
°F
5-day plot - Dew Point
DEWP
°F
5-day plot - Salinity
SAL
psu
5-day plot - Visibility
VIS
nmi
5-day plot - Tide (above MLLW)
TIDE
ft
2024-05-28 01:54 pm-------30.00- 54.0 45.1 46.9---
2024-05-28 01:48 pm-------30.00- 54.0 45.1 46.8---
2024-05-28 01:42 pm-------29.99- 58.8 45.1 49.3---
2024-05-28 01:36 pm-------29.98- 57.6 45.1 48.9---
2024-05-28 01:30 pm-------29.98- 57.4 45.3 48.9---
2024-05-28 01:24 pm-------29.98- 56.5 45.3 48.7---
2024-05-28 01:18 pm-------29.98- 55.2 45.3 48.6---
2024-05-28 01:12 pm-------29.98- 55.4 45.1 48.7---
2024-05-28 01:06 pm-------29.98- 57.2 45.3 49.1---
2024-05-28 01:00 pm-------29.98+0.03 56.7 45.1 49.1---
2024-05-28 12:54 pm-------29.98- 56.1 45.1 49.6---
2024-05-28 12:48 pm-------29.98- 60.8 45.3 51.8---
2024-05-28 12:42 pm-------29.98- 60.1 45.3 52.5---
2024-05-28 12:36 pm-------29.98- 59.4 45.3 52.5---
2024-05-28 12:30 pm-------29.98- 58.8 45.3 53.1---
2024-05-28 12:24 pm-------29.98- 57.9 45.3 53.6---
2024-05-28 12:18 pm-------29.98- 57.0 45.3 53.4---
2024-05-28 12:12 pm-------29.98- 56.7 45.3 52.7---
2024-05-28 12:06 pm-------29.98- 56.5 45.1 51.6---
2024-05-28 12:00 pm-------29.99+0.04 56.1 45.1 47.3---
2024-05-28 11:54 am-------29.98- 52.9 45.1 45.1---
2024-05-28 11:48 am-------29.97- 52.5 45.1 45.3---
2024-05-28 11:42 am-------29.97- 54.9 45.1 45.1---
2024-05-28 11:36 am-------29.97- 52.5 45.1 45.3---
2024-05-28 11:30 am-------29.97- 51.8 45.1 45.1---
2024-05-28 11:24 am-------29.97- 50.7 45.1 44.6---
2024-05-28 11:18 am-------29.97- 52.3 45.1 45.5---
2024-05-28 11:12 am-------29.96- 53.6 45.1 45.5---
2024-05-28 11:06 am-------29.96- 53.4 45.1 45.3---
2024-05-28 11:00 am-------29.96+0.03 54.3 45.3 45.3---
2024-05-28 10:54 am-------29.96- 51.8 45.3 44.8---
2024-05-28 10:48 am-------29.95- 54.0 45.3 45.3---
2024-05-28 10:42 am-------29.95- 52.0 45.3 44.4---
2024-05-28 10:36 am-------29.95- 51.3 45.1 44.8---
2024-05-28 10:30 am-------29.95- 49.6 45.3 43.7---
2024-05-28 10:24 am-------29.95- 51.1 45.1 44.1---
2024-05-28 10:18 am-------29.95- 56.3 45.3 45.5---
2024-05-28 10:12 am-------29.95- 62.1 45.1 48.0---
2024-05-28 10:06 am-------29.95- 61.7 45.3 47.1---
2024-05-28 10:00 am-------29.95+0.03 61.3 45.1 46.8---
2024-05-28 09:54 am-------29.95- 61.0 45.1 46.2---
2024-05-28 09:48 am-------29.95- 60.8 45.1 46.0---
2024-05-28 09:42 am-------29.95- 61.0 45.3 46.2---
2024-05-28 09:36 am-------29.95- 61.5 45.1 46.6---
2024-05-28 09:30 am-------29.95- 62.6 45.3 46.6---
2024-05-28 09:24 am-------29.95- 61.9 45.1 45.7---
2024-05-28 09:18 am-------29.95- 63.1 45.1 46.0---
2024-05-28 09:12 am-------29.95- 63.5 45.1 46.2---
2024-05-28 09:06 am-------29.95- 63.7 45.1 46.0---
2024-05-28 09:00 am-------29.95+0.04 62.1 45.1 45.9---
2024-05-28 08:54 am-------29.94- 62.4 45.3 45.5---
2024-05-28 08:48 am-------29.94- 61.5 45.1 44.6---
2024-05-28 08:42 am-------29.94- 61.9 45.1 45.9---
2024-05-28 08:36 am-------29.94- 61.7 45.1 45.0---
2024-05-28 08:30 am-------29.94- 63.1 45.3 45.3---
2024-05-28 08:24 am-------29.94- 62.8 45.1 45.3---
2024-05-28 08:18 am-------29.94- 61.7 45.1 45.5---
2024-05-28 08:12 am-------29.94- 59.9 45.1 45.9---
2024-05-28 08:06 am-------29.93- 59.5 45.1 46.4---
2024-05-28 08:00 am-------29.93+0.05 59.2 45.1 47.1---
2024-05-28 07:54 am-------29.93- 59.0 45.1 46.4---
2024-05-28 07:48 am-------29.93- 59.0 45.3 46.6---
2024-05-28 07:42 am-------29.93- 58.5 45.3 46.9---
2024-05-28 07:36 am-------29.93- 58.3 45.1 46.8---
2024-05-28 07:30 am-------29.93- 58.5 45.1 47.1---
2024-05-28 07:24 am-------29.93- 58.5 45.1 46.9---
2024-05-28 07:18 am-------29.92- 58.8 45.1 46.9---
2024-05-28 07:12 am-------29.92- 58.3 45.1 47.3---
2024-05-28 07:06 am-------29.92- 57.6 45.1 46.9---
2024-05-28 07:00 am-------29.92+0.06 57.0 45.1 46.9---
2024-05-28 06:54 am-------29.92- 55.9 45.1 46.8---
2024-05-28 06:48 am-------29.92- 56.1 45.1 46.6---
2024-05-28 06:42 am-------29.92- 55.9 45.1 46.8---
2024-05-28 06:36 am-------29.92- 55.4 45.1 46.6---
2024-05-28 06:30 am-------29.91- 54.5 45.3 46.6---
2024-05-28 06:24 am-------29.91- 54.3 45.3 46.6---
2024-05-28 06:18 am-------29.91- 53.6 45.3 47.1---
2024-05-28 06:12 am-------29.91- 51.8 45.1 48.0---
2024-05-28 06:06 am-------29.91- 52.2 45.1 48.4---
2024-05-28 06:00 am-------29.91+0.06 51.8 45.1 48.4---
2024-05-28 05:54 am-------29.91- 52.0 45.1 48.9---
2024-05-28 05:48 am-------29.91- 51.4 45.1 48.7---
2024-05-28 05:42 am-------29.90- 51.4 45.1 48.0---
2024-05-28 05:36 am-------29.90- 52.2 45.1 48.0---
2024-05-28 05:30 am-------29.90- 51.3 45.1 48.9---
2024-05-28 05:24 am-------29.89- 51.4 45.1 48.9---
2024-05-28 05:18 am-------29.89- 51.8 45.1 49.3---
2024-05-28 05:12 am-------29.89- 52.2 45.1 49.1---
2024-05-28 05:06 am-------29.89- 52.2 45.1 48.6---
2024-05-28 05:00 am-------29.88+0.06 52.7 45.1 48.6---
2024-05-28 04:54 am-------29.88- 52.5 45.1 48.2---
2024-05-28 04:48 am-------29.88- 52.5 45.1 48.4---
2024-05-28 04:42 am-------29.88- 52.3 45.3 48.9---
2024-05-28 04:36 am-------29.88- 52.5 45.3 49.5---
2024-05-28 04:30 am-------29.87- 52.5 45.3 49.3---
2024-05-28 04:24 am-------29.87- 52.9 45.3 49.1---
2024-05-28 04:18 am-------29.87- 53.2 45.3 49.1---
2024-05-28 04:12 am-------29.87- 54.3 45.3 47.5---
2024-05-28 04:06 am-------29.86- 53.8 45.3 48.6---
2024-05-28 04:00 am-------29.86+0.05 53.8 45.3 48.4---
2024-05-28 03:54 am-------29.86- 53.8 45.3 47.7---
2024-05-28 03:48 am-------29.86- 53.4 45.3 48.0---
2024-05-28 03:42 am-------29.86- 53.2 45.3 48.2---
2024-05-28 03:36 am-------29.85- 52.7 45.3 47.3---
2024-05-28 03:30 am-------29.85- 52.2 45.3 46.4---
2024-05-28 03:24 am-------29.85- 52.5 45.3 46.4---
2024-05-28 03:18 am-------29.85- 56.5 45.3 46.4---
2024-05-28 03:12 am-------29.85- 57.7 45.3 46.2---
2024-05-28 03:06 am-------29.85- 57.7 45.3 46.8---
2024-05-28 03:00 am-------29.84+0.05 57.6 45.3 46.9---
2024-05-28 02:54 am-------29.84- 57.6 45.1 47.1---
2024-05-28 02:48 am-------29.84- 57.6 45.1 47.3---
2024-05-28 02:42 am-------29.84- 57.6 45.1 47.3---
2024-05-28 02:36 am-------29.84- 57.4 45.1 47.5---
2024-05-28 02:30 am-------29.83- 57.4 45.1 47.5---
2024-05-28 02:24 am-------29.83- 57.2 45.3 47.8---
2024-05-28 02:18 am-------29.83- 57.2 45.3 48.0---
2024-05-28 02:12 am-------29.83- 57.0 45.3 48.6---
2024-05-28 02:06 am-------29.83- 57.4 45.3 48.2---
2024-05-28 02:00 am-------29.83+0.06 59.0 45.3 46.6---
2024-05-28 01:54 am-------29.83- 59.5 45.1 46.0---
2024-05-28 01:48 am-------29.83- 59.2 45.3 46.4---
2024-05-28 01:42 am-------29.82- 58.8 45.3 47.3---
2024-05-28 01:36 am-------29.82- 59.2 45.3 47.1---
2024-05-28 01:30 am-------29.82- 59.2 45.3 47.7---
2024-05-28 01:24 am-------29.82- 58.5 45.1 48.7---
2024-05-28 01:18 am-------29.82- 58.3 45.3 48.6---
2024-05-28 01:12 am-------29.82- 57.2 45.3 49.8---
2024-05-28 01:06 am-------29.81- 58.8 45.3 47.8---
2024-05-28 01:00 am-------29.81+0.05 57.9 45.3 47.5---
2024-05-28 12:54 am-------29.81- 58.1 45.3 47.7---
2024-05-28 12:48 am-------29.81- 59.2 45.3 45.1---
2024-05-28 12:42 am-------29.81- 59.5 45.3 45.9---
2024-05-28 12:36 am-------29.81- 60.8 45.1 45.7---
2024-05-28 12:30 am-------29.81- 60.4 45.3 44.8---
2024-05-28 12:24 am-------29.81- 60.1 45.1 45.5---
2024-05-28 12:18 am-------29.80- 61.9 45.1 45.7---
2024-05-28 12:12 am-------29.80- 61.5 45.1 46.2---
2024-05-28 12:06 am-------29.80- 61.9 45.1 45.7---
2024-05-28 12:00 am-------29.80+0.05 62.2 45.1 45.1---
2024-05-27 11:54 pm-------29.79- 62.2 45.1 45.1---
2024-05-27 11:48 pm-------29.79- 62.6 45.1 44.6---
2024-05-27 11:42 pm-------29.78- 62.8 45.3 44.6---
2024-05-27 11:36 pm-------29.78- 62.6 45.1 44.6---
2024-05-27 11:30 pm-------29.78- 63.0 45.1 44.4---
2024-05-27 11:24 pm-------29.78- 63.1 45.1 44.4---
2024-05-27 11:18 pm-------29.78- 63.3 45.1 44.2---
2024-05-27 11:12 pm-------29.77- 63.3 45.1 44.1---
2024-05-27 11:06 pm-------29.77- 63.3 45.1 44.2---
2024-05-27 11:00 pm-------29.77+0.04 63.5 45.1 44.1---
2024-05-27 10:54 pm-------29.77- 63.7 45.1 44.1---
2024-05-27 10:48 pm-------29.77- 63.5 45.1 44.1---
2024-05-27 10:42 pm-------29.77- 63.7 45.1 43.9---
2024-05-27 10:36 pm-------29.77- 63.7 45.1 44.1---
2024-05-27 10:30 pm-------29.77- 63.7 45.1 44.1---
2024-05-27 10:24 pm-------29.77- 63.9 45.1 44.1---
2024-05-27 10:18 pm-------29.76- 63.9 45.1 44.1---
2024-05-27 10:12 pm-------29.76- 64.0 45.1 44.2---
2024-05-27 10:06 pm-------29.76- 64.0 45.1 44.2---
2024-05-27 10:00 pm-------29.76+0.04 64.4 45.1 44.4---
2024-05-27 09:54 pm-------29.76- 64.4 45.3 44.8---
2024-05-27 09:48 pm-------29.76- 64.6 45.1 44.8---
2024-05-27 09:42 pm-------29.75- 64.6 45.1 45.3---
2024-05-27 09:36 pm-------29.75- 64.8 45.1 45.5---
2024-05-27 09:30 pm-------29.75- 64.8 45.1 46.0---
2024-05-27 09:24 pm-------29.75- 64.9 45.1 46.0---
2024-05-27 09:18 pm-------29.75- 65.1 45.1 46.2---
2024-05-27 09:12 pm-------29.75-- 45.1----
2024-05-27 09:06 pm-------29.75-- 45.1----
2024-05-27 09:00 pm-------29.74+0.02- 45.3----
2024-05-27 08:54 pm-------29.74-- 45.3----
2024-05-27 08:48 pm-------29.74-- 45.1----
2024-05-27 08:42 pm-------29.74-- 45.1----
2024-05-27 08:36 pm-------29.74-- 45.1----
2024-05-27 08:30 pm-------29.73-- 45.1----
2024-05-27 08:24 pm-------29.73-- 45.1----
2024-05-27 08:18 pm-------29.73-- 45.3----
2024-05-27 08:12 pm-------29.73-- 45.3----
2024-05-27 08:06 pm-------29.73-- 45.3----
2024-05-27 08:00 pm-------29.73-- 45.3----
2024-05-27 07:54 pm-------29.73-- 45.3----
2024-05-27 07:48 pm-------29.73-- 45.3----
2024-05-27 07:42 pm-------29.73-- 45.3----
2024-05-27 07:36 pm-------29.73-- 45.3----
2024-05-27 07:30 pm-------29.73-- 45.3----
2024-05-27 07:24 pm-------29.72-- 45.3----
2024-05-27 07:18 pm-------29.72- 49.5 45.3 45.7---
2024-05-27 07:12 pm-------29.72- 47.1 45.3 45.3---
2024-05-27 07:06 pm-------29.72- 46.6 45.3 45.1---
2024-05-27 07:00 pm-------29.72+0.00 46.9 45.3 45.5---
2024-05-27 06:54 pm-------29.72- 46.8 45.3 45.5---
2024-05-27 06:48 pm-------29.72-- 45.3----
2024-05-27 06:42 pm-------29.72-- 45.3----
2024-05-27 06:36 pm-------29.72-- 45.3----
2024-05-27 06:30 pm-------29.72- 46.8 45.3 45.5---
2024-05-27 06:24 pm-------29.72- 47.3 45.3 45.9---
2024-05-27 06:18 pm-------29.72- 47.7 45.3 45.9---
2024-05-27 06:12 pm-------29.72- 47.7 45.3 46.0---
2024-05-27 06:06 pm-------29.72- 48.0 45.3 46.6---
2024-05-27 06:00 pm-------29.72+0.01 47.7 45.3 46.4---
2024-05-27 05:54 pm-------29.72- 47.5 45.3 46.2---
2024-05-27 05:48 pm-------29.72- 46.9 45.3 45.7---
2024-05-27 05:42 pm-------29.72- 48.6 45.3 46.6---
2024-05-27 05:36 pm-------29.72- 48.2 45.3 46.2---
2024-05-27 05:30 pm-------29.72- 49.6 45.3 46.6---
2024-05-27 05:24 pm-------29.72- 48.9 45.3 46.8---
2024-05-27 05:18 pm-------29.72- 47.8 45.3 46.4---
2024-05-27 05:12 pm-------29.72- 51.3 45.3 46.6---
2024-05-27 05:06 pm-------29.71- 54.1 45.3 47.5---
2024-05-27 05:00 pm--------- 58.8 45.3 48.2---
2024-05-27 04:54 pm--------- 59.5 45.3 48.7---
2024-05-27 04:48 pm-------29.71- 56.5 45.3 49.1---
2024-05-27 04:42 pm-------29.71- 54.0 45.3 48.7---
2024-05-27 04:36 pm-------29.71- 50.2 45.3 47.3---
2024-05-27 04:30 pm-------29.71-- 45.3----
2024-05-27 04:24 pm-------29.71-- 45.3----
2024-05-27 04:18 pm-------29.71- 52.3 45.3 48.0---
2024-05-27 04:12 pm-------29.72- 53.6 45.3 48.7---
2024-05-27 04:06 pm-------29.72- 53.6 45.3 48.7---
2024-05-27 04:00 pm-------29.72+0.00 52.5 45.3 48.4---
2024-05-27 03:54 pm-------29.71- 52.9 45.3 48.2---
2024-05-27 03:48 pm-------29.71- 54.0 45.3 48.7---
2024-05-27 03:42 pm-------29.71- 55.6 45.3 49.1---
2024-05-27 03:36 pm-------29.70- 54.9 45.3 49.3---
2024-05-27 03:30 pm-------29.70- 56.3 45.3 49.6---
2024-05-27 03:24 pm-------29.71- 58.8 45.3 50.5---
2024-05-27 03:18 pm-------29.71- 58.5 45.3 50.5---
2024-05-27 03:12 pm-------29.70- 59.4 45.3 50.9---
2024-05-27 03:06 pm-------29.70- 58.6 45.3 51.1---
2024-05-27 03:00 pm-------29.70-0.02 58.1 45.3 51.1---
2024-05-27 02:54 pm-------29.70- 58.1 45.3 51.1---
2024-05-27 02:48 pm--------- 55.4 45.3 49.6---
2024-05-27 02:42 pm--------- 55.6 45.3 50.0---
2024-05-27 02:36 pm--------- 55.0 45.3 49.6---
2024-05-27 02:30 pm-------29.71- 56.5 45.3 50.0---
2024-05-27 02:24 pm-------29.71- 55.4 45.3 49.6---
2024-05-27 02:18 pm-------29.71- 57.7 45.3 50.7---
2024-05-27 02:12 pm-------29.71- 58.1 45.3 50.7---
2024-05-27 02:06 pm-------29.71- 57.6 45.3 50.4---
2024-05-27 02:00 pm-------29.71-0.02 56.3 45.3 50.2---
2024-05-27 01:54 pm-------29.71- 57.0 45.3 50.4---